Manistique, MI

9:42 PM EDT on July 27, 2017 (GMT -0400)
Schoolcraft County

Weather History for KISQ - July, 2012

Change the Weather History Date:

Thursday, July 19, 2012

  Actual Average Record
Temperature  
Mean Temperature 64 °F -  
Max Temperature 73 °F 75 °F 87 °F (1975)
Min Temperature 55 °F 55 °F 33 °F (2000)
Degree Days  
Heating Degree Days 1    
Growing Degree Days 14 (Base 50)    
Moisture  
Dew Point 58 °F    
Average Humidity 76    
Maximum Humidity 94    
Minimum Humidity 64    
Precipitation  
Precipitation 0.00 in - - ()
Sea Level Pressure  
Sea Level Pressure 30.05 in    
Wind  
Wind Speed 6 mph (ENE)    
Max Wind Speed 14 mph    
Max Gust Speed -    
Visibility 10 miles    
Events      
Averages and records for this station are not official NWS values.
T = Trace of Precipitation, MM = Missing Value Source: NWS Daily Summary

Daily Weather History Graph

Daily Weather History Graph

Search for Another Location

Airport or City:

Trip Planner

Search our weather history database for the weather conditions in past years. The results will help you decide how hot, cold, wet, or windy it might be!

Date:

Astronomy

Jul. 19, 2012 Rise Set
Actual Time 6:13 AM EDT 9:28 PM EDT
Civil Twilight 5:36 AM EDT 10:04 PM EDT
Nautical Twilight 4:49 AM EDT 10:51 PM EDT
Astronomical Twilight 3:50 AM EDT 11:49 PM EDT
Moon 6:52 AM EDT (7/19) 9:27 PM EDT (7/19)
Length of Visible Light 16h 27m
Length of Day
15h 14m
New Moon, 0% of the Moon is Illuminated
Jul 19
New Moon
Jul 26
First Quarter
Aug 1
Full
Aug 9
Last Quarter
Aug 17
New

Hourly Weather History & Observations

Time (EDT) Temp. Dew Point Humidity Pressure Visibility Wind Dir Wind Speed Gust Speed Precip Events Conditions
12:14 AM 64.4 °F 51.8 °F 64% 30.02 in 10.0 mi NNE 4.6 mph - N/A   Scattered Clouds
12:35 AM 62.6 °F 53.6 °F 72% 30.02 in 10.0 mi North 5.8 mph - N/A   Clear
12:55 AM 62.6 °F 53.6 °F 72% 30.02 in 10.0 mi North 4.6 mph - N/A   Clear
1:14 AM 62.6 °F 53.6 °F 72% 30.01 in 10.0 mi NNE 5.8 mph - N/A   Clear
1:35 AM 62.6 °F 53.6 °F 72% 30.01 in 10.0 mi North 4.6 mph - N/A   Clear
1:54 AM 62.6 °F 53.6 °F 72% 29.99 in 10.0 mi NNE 6.9 mph - N/A   Clear
2:15 AM 62.6 °F 53.6 °F 72% 29.99 in 10.0 mi NNE 5.8 mph - N/A   Clear
2:34 AM 60.8 °F 53.6 °F 77% 29.99 in 10.0 mi NNE 5.8 mph - N/A   Clear
2:55 AM 60.8 °F 53.6 °F 77% 29.99 in 10.0 mi NE 4.6 mph - N/A   Clear
3:15 AM 60.8 °F 53.6 °F 77% 30.00 in 7.0 mi North 4.6 mph - N/A   Clear
3:35 AM 60.8 °F 55.4 °F 82% 30.00 in 10.0 mi NNE 4.6 mph - N/A   Clear
3:55 AM 60.8 °F 55.4 °F 82% 30.00 in 10.0 mi NNE 6.9 mph - N/A   Clear
4:14 AM 60.8 °F 55.4 °F 82% 29.99 in 10.0 mi NNE 5.8 mph - N/A   Clear
4:35 AM 60.8 °F 55.4 °F 82% 29.99 in 10.0 mi NE 5.8 mph - N/A   Scattered Clouds
4:55 AM 62.6 °F 55.4 °F 77% 29.99 in 10.0 mi NE 5.8 mph - N/A   Scattered Clouds
5:14 AM 62.6 °F 55.4 °F 77% 29.99 in 10.0 mi NE 4.6 mph - N/A   Scattered Clouds
5:35 AM 62.6 °F 55.4 °F 77% 30.00 in 10.0 mi NE 4.6 mph - N/A   Scattered Clouds
5:55 AM 62.6 °F 55.4 °F 77% 30.00 in 10.0 mi NE 3.5 mph - N/A   Scattered Clouds
6:14 AM 62.6 °F 55.4 °F 77% 30.01 in 10.0 mi NE 3.5 mph - N/A   Scattered Clouds
6:35 AM 62.6 °F 55.4 °F 77% 30.01 in 10.0 mi NNE 3.5 mph - N/A   Scattered Clouds
6:54 AM 62.6 °F 55.4 °F 77% 30.01 in 10.0 mi NNE 5.8 mph - N/A   Scattered Clouds
7:15 AM 62.6 °F 55.4 °F 77% 30.02 in 10.0 mi NNE 5.8 mph - N/A   Scattered Clouds
7:34 AM 62.6 °F 55.4 °F 77% 30.02 in 10.0 mi NE 6.9 mph - N/A   Scattered Clouds
8:15 AM 62.6 °F 55.4 °F 77% 30.02 in 10.0 mi NNE 6.9 mph - N/A   Clear
8:34 AM 62.6 °F 55.4 °F 77% 30.02 in 10.0 mi NE 5.8 mph - N/A   Clear
8:55 AM 64.4 °F 57.2 °F 77% 30.02 in 10.0 mi ENE 4.6 mph - N/A   Clear
9:35 AM 66.2 °F 57.2 °F 73% 30.04 in 10.0 mi ENE 6.9 mph - N/A   Scattered Clouds
9:55 AM 66.2 °F 59.0 °F 78% 30.04 in 10.0 mi ENE 6.9 mph - N/A   Scattered Clouds
10:14 AM 66.2 °F 59.0 °F 78% 30.04 in 10.0 mi ENE 6.9 mph - N/A   Scattered Clouds
10:35 AM 66.2 °F 60.8 °F 83% 30.04 in 10.0 mi ENE 8.1 mph - N/A   Scattered Clouds
10:54 AM 68.0 °F 60.8 °F 78% 30.04 in 10.0 mi NE 8.1 mph - N/A   Clear
11:35 AM 68.0 °F 60.8 °F 78% 30.05 in 10.0 mi NE 8.1 mph - N/A   Scattered Clouds
11:54 AM 68.0 °F 60.8 °F 78% 30.06 in 10.0 mi NE 8.1 mph - N/A   Clear
12:15 PM 69.8 °F 60.8 °F 73% 30.06 in 10.0 mi ENE 8.1 mph - N/A   Scattered Clouds
12:34 PM 69.8 °F 60.8 °F 73% 30.06 in 10.0 mi ENE 6.9 mph - N/A   Scattered Clouds
12:55 PM 71.6 °F 62.6 °F 73% 30.06 in 10.0 mi East 10.4 mph - N/A   Clear
1:15 PM 69.8 °F 62.6 °F 78% 30.06 in 10.0 mi ENE 9.2 mph - N/A   Scattered Clouds
1:34 PM 71.6 °F 62.6 °F 73% 30.07 in 10.0 mi ENE 10.4 mph - N/A   Scattered Clouds
1:55 PM 71.6 °F 62.6 °F 73% 30.07 in 10.0 mi East 10.4 mph - N/A   Mostly Cloudy
2:15 PM 71.6 °F 62.6 °F 73% 30.07 in 10.0 mi ENE 5.8 mph - N/A   Scattered Clouds
2:34 PM 69.8 °F 62.6 °F 78% 30.07 in 10.0 mi Calm Calm - N/A   Mostly Cloudy
2:55 PM 68.0 °F 60.8 °F 78% 30.07 in 10.0 mi South 3.5 mph - N/A   Overcast
3:15 PM 69.8 °F 60.8 °F 73% 30.08 in 10.0 mi SSW 5.8 mph - N/A   Overcast
3:34 PM 69.8 °F 60.8 °F 73% 30.08 in 10.0 mi SW 4.6 mph - N/A   Overcast
3:55 PM 69.8 °F 60.8 °F 73% 30.08 in 10.0 mi SW 3.5 mph - N/A   Overcast
4:14 PM 69.8 °F 60.8 °F 73% 30.08 in 10.0 mi WSW 3.5 mph - N/A   Overcast
4:35 PM 71.6 °F 62.6 °F 73% 30.08 in 10.0 mi ESE 8.1 mph - N/A   Overcast
4:55 PM 71.6 °F 62.6 °F 73% 30.07 in 10.0 mi SE 11.5 mph - N/A   Overcast
5:14 PM 71.6 °F 62.6 °F 73% 30.07 in 10.0 mi ESE 11.5 mph - N/A   Mostly Cloudy
5:35 PM 73.4 °F 62.6 °F 69% 30.07 in 10.0 mi SE 13.8 mph - N/A   Scattered Clouds
5:55 PM 73.4 °F 60.8 °F 65% 30.07 in 10.0 mi ESE 13.8 mph - N/A   Clear
6:14 PM 73.4 °F 62.6 °F 69% 30.07 in 10.0 mi ESE 8.1 mph - N/A   Clear
6:35 PM 71.6 °F 60.8 °F 69% 30.07 in 10.0 mi SE 10.4 mph - N/A   Clear
6:55 PM 71.6 °F 60.8 °F 69% 30.07 in 10.0 mi ESE 9.2 mph - N/A   Clear
7:14 PM 71.6 °F 60.8 °F 69% 30.07 in 10.0 mi ESE 11.5 mph - N/A   Clear
7:35 PM 71.6 °F 59.0 °F 64% 30.07 in 10.0 mi SE 10.4 mph - N/A   Clear
7:54 PM 71.6 °F 60.8 °F 69% 30.08 in 7.0 mi ESE 6.9 mph - N/A   Clear
8:15 PM 69.8 °F 59.0 °F 68% 30.08 in 7.0 mi ESE 6.9 mph - N/A   Clear
8:35 PM 68.0 °F 59.0 °F 73% 30.09 in 10.0 mi East 5.8 mph - N/A   Clear
8:54 PM 68.0 °F 59.0 °F 73% 30.09 in 10.0 mi East 3.5 mph - N/A   Clear
9:15 PM 66.2 °F 57.2 °F 73% 30.09 in 10.0 mi Calm Calm - N/A   Clear
9:34 PM 62.6 °F 57.2 °F 82% 30.09 in 10.0 mi Calm Calm - N/A   Clear
9:55 PM 60.8 °F 57.2 °F 88% 30.09 in 10.0 mi Calm Calm - N/A   Clear
10:15 PM 60.8 °F 57.2 °F 88% 30.09 in 10.0 mi Calm Calm - N/A   Clear
10:34 PM 57.2 °F 55.4 °F 94% 30.10 in 10.0 mi Calm Calm - N/A   Clear
10:55 PM 57.2 °F 55.4 °F 94% 30.10 in 10.0 mi Calm Calm - N/A   Clear
11:15 PM 57.2 °F 53.6 °F 88% 30.10 in 7.0 mi Calm Calm - N/A   Clear
11:34 PM 55.4 °F 53.6 °F 94% 30.10 in 10.0 mi Calm Calm - N/A   Clear
11:55 PM 55.4 °F 53.6 °F 94% 30.10 in 7.0 mi Calm Calm - N/A   Clear